Hourly Data Report for April 24, 2018

KUGAARUK CLIMATE
NUNAVUT
Current Station Operator: ECCC - MSC

68°32'15.060" N
89°47'47.020" W
15.80 m
2303094
71407
NBB

Download Data

Hourly Data (April 2018)
Hourly Data Report for April 24, 2018
TIME
LST
Temp Definition
°C
Dew Point Definition
°C
Rel Hum Definition
%
Precip. Amount Definition
mm

Wind Dir Definition
10's deg

Wind Spd Definition
km/h
Visibility Definition
km
Stn Press Definition
kPa
Hmdx Definition


Wind Chill Definition


Weather Definition


00:00 -19.5 -21.8 82 0.3 27 23   101.21   -31 LegendNANA
01:00 -19.9 -22.3 81 0.2 23 24   101.18   -31 LegendNANA
02:00 -20.6 -23.0 81 0.2 24 28   101.15   -33 LegendNANA
03:00 -21.0 -23.4 81 0.0 24 23   101.14   -32 LegendNANA
04:00 -21.1 -23.6 80 0.0 23 27   101.10   -33 LegendNANA
05:00 -21.2 -23.9 79 0.0 24 28   101.08   -34 LegendNANA
06:00 -21.2 -24.1 78 0.0 24 20   101.07   -32 LegendNANA
07:00 -20.9 -24.0 77 0.0 25 20   101.03   -32 LegendNANA
08:00 -20.7 -23.8 76 0.0 23 18   101.02   -31 LegendNANA
09:00 -19.9 -23.6 72 0.0 27 18   100.99   -30 LegendNANA
10:00 -19.6 -23.4 72 0.0 27 20   100.98   -30 LegendNANA
11:00 -19.4 -23.4 71 0.0 26 21   100.94   -30 LegendNANA
12:00 -19.1 -22.7 73 0.0 26 23   100.91   -30 LegendNANA
13:00 -19.3 -23.0 73 0.0 26 25   100.90   -31 LegendNANA
14:00 -18.7 -22.5 72 0.0 27 23   100.88   -30 LegendNANA
15:00 -18.9 -22.7 72 0.0 27 25   100.88   -30 LegendNANA
16:00 -18.7 -22.3 73 0.0 27 20   100.87   -29 LegendNANA
17:00 -19.2 -22.7 74 0.0 27 20   100.86   -29 LegendNANA
18:00 -20.2 -23.1 77 0.0 27 19   100.84   -30 LegendNANA
19:00 -20.5 -23.3 78 0.0 26 14   100.84   -29 LegendNANA
20:00 -21.5 -24.1 80 0.0 26 12   100.83   -30 LegendNANA
21:00 -21.1 -23.7 79 0.0 24 15   100.79   -30 LegendNANA
22:00 -21.0 -23.8 78 0.0 23 15   100.78   -30 LegendNANA
23:00 -21.1 -23.9 78 0.0 27 15   100.77   -30 LegendNANA

Notes on Data Quality.

Legend

  • E = Estimated
  • M = Missing
  • NA = Not Available*
  • [empty] = Indicates an unobserved value
Date modified: